ASL1980 LYBE-LROP

Flight info

Callsign ASL1980
Flight time 0h 51m
Altitude 19000
Route DONIV L5 VELIP DCT TOSVI
Aircraft A320/M-SDE3FGHIRWY/LB1

Departure

Time 2026-05-05 19:44
Airport Belgrade Nikola Tesla Airport (LYBE)

Arrival

Time 2026-05-05 20:35
Airport Bucharest Henri Coandă International Airport (LROP)
Time Latitude Longitude Altitude Speed Heading
2026-05-05 19:32 44.81940 20.29589 330 ft 0 kts 158°
2026-05-05 19:40 44.81937 20.29578 330 ft 1 kts 262°
2026-05-05 19:41 44.81972 20.29561 327 ft 11 kts
2026-05-05 19:41 44.82069 20.29635 326 ft 21 kts 62°
2026-05-05 19:41 44.82006 20.29846 328 ft 29 kts 118°
2026-05-05 19:41 44.81886 20.30130 330 ft 38 kts 122°
2026-05-05 19:42 44.81724 20.30480 334 ft 47 kts 122°
2026-05-05 19:42 44.81537 20.30903 334 ft 55 kts 122°
2026-05-05 19:42 44.81330 20.31366 337 ft 56 kts 122°
2026-05-05 19:42 44.81129 20.31823 337 ft 54 kts 122°
2026-05-05 19:43 44.80991 20.32163 348 ft 27 kts 94°
2026-05-05 19:43 44.81076 20.32321 344 ft 13 kts 25°
2026-05-05 19:43 44.81124 20.32307 344 ft 8 kts 345°
2026-05-05 19:43 44.81242 20.32238 343 ft 43 kts 324°
2026-05-05 19:44 44.81575 20.31539 336 ft 126 kts 302°
2026-05-05 19:44 44.82157 20.30229 329 ft 187 kts 304°
2026-05-05 19:44 44.82868 20.28688 1149 ft 186 kts 302°
2026-05-05 19:44 44.83638 20.27159 1909 ft 206 kts 304°
2026-05-05 19:45 44.84572 20.25472 2640 ft 232 kts 310°
2026-05-05 19:45 44.85895 20.23956 3198 ft 260 kts 329°
2026-05-05 19:45 44.87658 20.23128 3829 ft 275 kts 352°
2026-05-05 19:45 44.89592 20.23216 4681 ft 282 kts 12°
2026-05-05 19:46 44.91430 20.24202 5553 ft 286 kts 31°
2026-05-05 19:46 44.92971 20.25986 6429 ft 289 kts 50°
2026-05-05 19:46 44.94030 20.28382 7256 ft 290 kts 70°
2026-05-05 19:46 44.94471 20.31144 8065 ft 291 kts 89°
2026-05-05 19:47 44.94429 20.34004 8880 ft 293 kts 93°
2026-05-05 19:47 44.94365 20.36895 9686 ft 296 kts 93°
2026-05-05 19:47 44.94305 20.39826 10317 ft 306 kts 92°
2026-05-05 19:47 44.94242 20.42937 10509 ft 329 kts 93°
2026-05-05 19:48 44.94174 20.46281 10652 ft 352 kts 92°
2026-05-05 19:48 44.94102 20.49827 10881 ft 370 kts 92°
2026-05-05 19:48 44.94028 20.53488 11456 ft 375 kts 93°
2026-05-05 19:48 44.93954 20.57180 12141 ft 377 kts 93°
2026-05-05 19:49 44.93882 20.60894 12830 ft 379 kts 93°
2026-05-05 19:49 44.93808 20.64623 13536 ft 381 kts 93°
2026-05-05 19:49 44.93731 20.68369 14166 ft 383 kts 93°
2026-05-05 19:49 44.93652 20.72147 14713 ft 387 kts 93°
2026-05-05 19:50 44.93569 20.75966 15240 ft 391 kts 93°
2026-05-05 19:50 44.93484 20.79822 15762 ft 395 kts 93°
2026-05-05 19:50 44.93398 20.83717 16292 ft 399 kts 92°
2026-05-05 19:50 44.93311 20.87656 16841 ft 403 kts 92°
2026-05-05 19:51 44.93220 20.91629 17400 ft 408 kts 92°
2026-05-05 19:51 44.93124 20.95648 17965 ft 412 kts 92°
2026-05-05 19:51 44.93024 20.99703 18486 ft 416 kts 92°
2026-05-05 19:51 44.92922 21.03798 18854 ft 418 kts 92°
2026-05-05 19:52 44.92822 21.07910 18957 ft 423 kts 92°
2026-05-05 19:52 44.92717 21.12135 18985 ft 438 kts 92°
2026-05-05 19:52 44.92607 21.16485 18981 ft 448 kts 92°
2026-05-05 19:52 44.92495 21.20838 18976 ft 451 kts 92°
2026-05-05 19:53 44.92378 21.25252 18984 ft 451 kts 92°
2026-05-05 19:53 44.92261 21.29686 18985 ft 451 kts 92°
2026-05-05 19:53 44.92141 21.34112 18987 ft 451 kts 92°
2026-05-05 19:53 44.92021 21.38537 18984 ft 451 kts 92°
2026-05-05 19:54 44.91898 21.42962 18989 ft 452 kts 92°
2026-05-05 19:54 44.91774 21.47388 18980 ft 452 kts 92°
2026-05-05 19:54 44.91649 21.51814 18990 ft 451 kts 92°
2026-05-05 19:54 44.91522 21.56241 18996 ft 451 kts 92°
2026-05-05 19:55 44.91395 21.60648 18995 ft 450 kts 92°
2026-05-05 19:55 44.91266 21.65060 18998 ft 450 kts 92°
2026-05-05 19:55 44.91136 21.69468 19000 ft 449 kts 92°
2026-05-05 19:55 44.91002 21.73864 19002 ft 449 kts 92°
2026-05-05 19:56 44.90866 21.78267 19005 ft 449 kts 92°
2026-05-05 19:56 44.90730 21.82658 19009 ft 449 kts 92°
2026-05-05 19:56 44.90591 21.87059 19003 ft 448 kts 92°
2026-05-05 19:56 44.90450 21.91446 19012 ft 448 kts 92°
2026-05-05 19:57 44.90308 21.95832 19010 ft 448 kts 92°
2026-05-05 19:57 44.90164 22.00226 19008 ft 448 kts 92°
2026-05-05 19:57 44.90017 22.04614 19009 ft 448 kts 92°
2026-05-05 19:57 44.89870 22.08995 19017 ft 447 kts 92°
2026-05-05 19:58 44.89722 22.13376 19019 ft 447 kts 92°
2026-05-05 19:58 44.89574 22.17760 19018 ft 447 kts 92°
2026-05-05 19:58 44.89425 22.22140 19022 ft 447 kts 92°
2026-05-05 19:58 44.89274 22.26511 19020 ft 447 kts 92°
2026-05-05 19:59 44.89117 22.30886 19023 ft 447 kts 92°
2026-05-05 19:59 44.88957 22.35248 19026 ft 446 kts 92°
2026-05-05 19:59 44.88794 22.39626 19025 ft 446 kts 92°
2026-05-05 19:59 44.88631 22.43994 19029 ft 446 kts 92°
2026-05-05 20:00 44.88470 22.48360 19032 ft 446 kts 92°
2026-05-05 20:00 44.88308 22.52725 19031 ft 446 kts 92°
2026-05-05 20:00 44.88145 22.57086 19036 ft 445 kts 92°
2026-05-05 20:00 44.87982 22.61446 19037 ft 445 kts 92°
2026-05-05 20:01 44.87816 22.65802 19030 ft 445 kts 92°
2026-05-05 20:01 44.87648 22.70145 19034 ft 444 kts 92°
2026-05-05 20:01 44.87476 22.74508 19033 ft 444 kts 92°
2026-05-05 20:01 44.87305 22.78830 19033 ft 444 kts 92°
2026-05-05 20:02 44.87128 22.83190 19032 ft 444 kts 92°
2026-05-05 20:02 44.86950 22.87543 19033 ft 444 kts 92°
2026-05-05 20:02 44.86772 22.91886 19033 ft 444 kts 92°
2026-05-05 20:02 44.86594 22.96225 19030 ft 444 kts 92°
2026-05-05 20:03 44.86416 23.00573 19034 ft 444 kts 92°
2026-05-05 20:03 44.86236 23.04918 19030 ft 444 kts 92°
2026-05-05 20:03 44.86052 23.09260 19034 ft 444 kts 92°
2026-05-05 20:03 44.85866 23.13606 19040 ft 444 kts 92°
2026-05-05 20:04 44.85681 23.17893 19032 ft 444 kts 92°
2026-05-05 20:04 44.85492 23.22292 19034 ft 444 kts 92°
2026-05-05 20:04 44.85308 23.26579 19033 ft 444 kts 92°
2026-05-05 20:04 44.85122 23.30914 19029 ft 444 kts 92°
2026-05-05 20:05 44.84934 23.35217 19031 ft 444 kts 92°
2026-05-05 20:05 44.84735 23.39668 19024 ft 444 kts 92°
2026-05-05 20:05 44.84535 23.43952 19023 ft 444 kts 92°
2026-05-05 20:05 44.84332 23.48295 19020 ft 444 kts 92°
2026-05-05 20:06 44.84131 23.52627 19019 ft 444 kts 92°
2026-05-05 20:06 44.83930 23.56966 19029 ft 444 kts 92°
2026-05-05 20:06 44.83728 23.61306 19026 ft 444 kts 92°
2026-05-05 20:06 44.83524 23.65642 19027 ft 444 kts 92°
2026-05-05 20:07 44.83317 23.69982 19025 ft 444 kts 92°
2026-05-05 20:07 44.83109 23.74317 19023 ft 443 kts 92°
2026-05-05 20:07 44.82901 23.78650 19021 ft 443 kts 92°
2026-05-05 20:07 44.82690 23.82976 19024 ft 443 kts 93°
2026-05-05 20:08 44.82477 23.87311 19023 ft 443 kts 93°
2026-05-05 20:08 44.82263 23.91635 19027 ft 443 kts 93°
2026-05-05 20:08 44.82047 23.95967 19029 ft 443 kts 93°
2026-05-05 20:08 44.81829 24.00297 19024 ft 443 kts 93°
2026-05-05 20:09 44.81610 24.04619 19022 ft 443 kts 93°
2026-05-05 20:09 44.81390 24.08945 19024 ft 443 kts 93°
2026-05-05 20:09 44.81169 24.13268 19017 ft 443 kts 93°
2026-05-05 20:09 44.80947 24.17587 19022 ft 443 kts 93°
2026-05-05 20:10 44.80723 24.21904 19023 ft 442 kts 93°
2026-05-05 20:10 44.80494 24.26229 19024 ft 442 kts 93°
2026-05-05 20:10 44.80262 24.30545 19023 ft 442 kts 93°
2026-05-05 20:10 44.80031 24.34868 19025 ft 442 kts 93°
2026-05-05 20:11 44.79800 24.39184 19025 ft 442 kts 93°
2026-05-05 20:11 44.79566 24.43498 19023 ft 442 kts 93°
2026-05-05 20:11 44.79331 24.47812 19025 ft 442 kts 93°
2026-05-05 20:11 44.79096 24.52134 19026 ft 442 kts 93°
2026-05-05 20:12 44.78859 24.56457 19026 ft 443 kts 93°
2026-05-05 20:12 44.78618 24.60775 19028 ft 443 kts 93°
2026-05-05 20:12 44.78375 24.65102 19030 ft 443 kts 93°
2026-05-05 20:12 44.78131 24.69417 19031 ft 443 kts 93°
2026-05-05 20:13 44.77887 24.73658 19036 ft 423 kts 93°
2026-05-05 20:13 44.77650 24.77713 19044 ft 412 kts 93°
2026-05-05 20:13 44.77417 24.81721 19043 ft 410 kts 93°
2026-05-05 20:13 44.77186 24.85717 19046 ft 410 kts 93°
2026-05-05 20:14 44.76959 24.89706 19045 ft 410 kts 93°
2026-05-05 20:14 44.76728 24.93704 19044 ft 410 kts 93°
2026-05-05 20:14 44.76492 24.97699 19049 ft 410 kts 93°
2026-05-05 20:14 44.76254 25.01687 19043 ft 409 kts 93°
2026-05-05 20:15 44.76019 25.05651 18617 ft 404 kts 93°
2026-05-05 20:15 44.75785 25.09572 18124 ft 400 kts 93°
2026-05-05 20:15 44.75551 25.13452 17586 ft 396 kts 93°
2026-05-05 20:15 44.75216 25.17284 17059 ft 393 kts 100°
2026-05-05 20:16 44.74643 25.21030 16540 ft 389 kts 100°
2026-05-05 20:16 44.74080 25.24725 16037 ft 385 kts 100°
2026-05-05 20:16 44.73524 25.28386 15536 ft 380 kts 100°
2026-05-05 20:16 44.72979 25.31954 15050 ft 375 kts 100°
2026-05-05 20:17 44.72425 25.35566 14562 ft 370 kts 100°
2026-05-05 20:17 44.71897 25.39026 14129 ft 364 kts 100°
2026-05-05 20:17 44.71375 25.42489 13974 ft 349 kts 98°
2026-05-05 20:17 44.71211 25.45734 13992 ft 328 kts 85°
2026-05-05 20:18 44.71439 25.48848 13794 ft 317 kts 81°
2026-05-05 20:18 44.71690 25.51908 13398 ft 314 kts 81°
2026-05-05 20:18 44.71936 25.54954 13003 ft 311 kts 81°
2026-05-05 20:18 44.72176 25.57967 12610 ft 309 kts 81°
2026-05-05 20:19 44.72414 25.60959 12178 ft 308 kts 81°
2026-05-05 20:19 44.72655 25.63974 11622 ft 312 kts 81°
2026-05-05 20:19 44.72897 25.67020 11074 ft 315 kts 81°
2026-05-05 20:19 44.73142 25.70096 10532 ft 318 kts 81°
2026-05-05 20:20 44.73389 25.73201 10003 ft 321 kts 81°
2026-05-05 20:20 44.73274 25.76339 9429 ft 328 kts 104°
2026-05-05 20:20 44.72117 25.79105 8859 ft 335 kts 134°
2026-05-05 20:20 44.70171 25.80792 8295 ft 327 kts 161°
2026-05-05 20:21 44.67978 25.81378 7734 ft 316 kts 180°
2026-05-05 20:21 44.65900 25.80704 7208 ft 303 kts 209°
2026-05-05 20:21 44.64055 25.79365 6656 ft 297 kts 203°
2026-05-05 20:21 44.62050 25.78719 6032 ft 296 kts 185°
2026-05-05 20:22 44.60015 25.78957 5393 ft 294 kts 166°
2026-05-05 20:22 44.58099 25.79914 4786 ft 290 kts 162°
2026-05-05 20:22 44.56145 25.80195 4190 ft 281 kts 194°
2026-05-05 20:22 44.54435 25.79148 4021 ft 258 kts 216°
2026-05-05 20:23 44.53171 25.77559 3998 ft 232 kts 232°
2026-05-05 20:23 44.52327 25.75722 4000 ft 222 kts 248°
2026-05-05 20:23 44.52011 25.73639 3993 ft 220 kts 273°
2026-05-05 20:23 44.52398 25.71599 4008 ft 219 kts 296°
2026-05-05 20:24 44.53067 25.69664 4006 ft 220 kts 295°
2026-05-05 20:24 44.53734 25.67732 4005 ft 220 kts 295°
2026-05-05 20:24 44.54397 25.65804 3999 ft 220 kts 295°
2026-05-05 20:24 44.54834 25.64525 4003 ft 220 kts 295°
2026-05-05 20:25 44.55492 25.62591 4006 ft 220 kts 295°
2026-05-05 20:25 44.56365 25.60034 4004 ft 219 kts 295°
2026-05-05 20:25 44.57026 25.58102 4006 ft 219 kts 295°
2026-05-05 20:25 44.57470 25.56798 3996 ft 219 kts 295°
2026-05-05 20:26 44.58121 25.54865 3990 ft 219 kts 291°
2026-05-05 20:26 44.58443 25.52797 4002 ft 218 kts 270°
2026-05-05 20:26 44.58191 25.50715 4002 ft 218 kts 249°
2026-05-05 20:26 44.57400 25.48910 4006 ft 219 kts 226°
2026-05-05 20:27 44.56128 25.47745 4000 ft 222 kts 199°
2026-05-05 20:27 44.54590 25.47608 4000 ft 226 kts 168°
2026-05-05 20:27 44.53191 25.48607 3999 ft 230 kts 136°
2026-05-05 20:27 44.52351 25.50495 3996 ft 232 kts 104°
2026-05-05 20:28 44.52273 25.52743 4005 ft 233 kts 84°
2026-05-05 20:28 44.52415 25.55001 4001 ft 233 kts 84°
2026-05-05 20:28 44.52555 25.57267 4002 ft 233 kts 84°
2026-05-05 20:28 44.52692 25.59501 4003 ft 233 kts 84°
2026-05-05 20:29 44.52858 25.61773 3992 ft 227 kts 83°
2026-05-05 20:29 44.53034 25.63949 4003 ft 223 kts 83°
2026-05-05 20:29 44.53210 25.66074 4006 ft 222 kts 83°
2026-05-05 20:29 44.53387 25.68222 4008 ft 222 kts 83°
2026-05-05 20:30 44.53565 25.70405 4010 ft 222 kts 83°
2026-05-05 20:30 44.53736 25.72522 4010 ft 222 kts 83°
2026-05-05 20:30 44.53907 25.74670 4002 ft 222 kts 83°
2026-05-05 20:30 44.54076 25.76817 4000 ft 222 kts 83°
2026-05-05 20:31 44.54246 25.78971 3835 ft 222 kts 83°
2026-05-05 20:31 44.54415 25.81110 3617 ft 220 kts 83°
2026-05-05 20:31 44.54582 25.83242 3404 ft 220 kts 83°
2026-05-05 20:31 44.54749 25.85368 3153 ft 219 kts 84°
2026-05-05 20:32 44.54910 25.87430 2871 ft 208 kts 84°
2026-05-05 20:32 44.55063 25.89389 2637 ft 196 kts 85°
2026-05-05 20:32 44.55208 25.91244 2363 ft 188 kts 85°
2026-05-05 20:32 44.55349 25.93047 2080 ft 184 kts 85°
2026-05-05 20:33 44.55486 25.94824 1808 ft 183 kts 86°
2026-05-05 20:33 44.55620 25.96563 1572 ft 174 kts 86°
2026-05-05 20:33 44.55747 25.98227 1505 ft 166 kts 86°
2026-05-05 20:33 44.55866 25.99781 1522 ft 158 kts 86°
2026-05-05 20:34 44.55982 26.01306 1513 ft 156 kts 86°
2026-05-05 20:34 44.56096 26.02813 1395 ft 157 kts 86°
2026-05-05 20:34 44.56209 26.04315 1030 ft 151 kts 85°
2026-05-05 20:34 44.56320 26.05753 775 ft 147 kts 84°
2026-05-05 20:35 44.56437 26.07164 578 ft 145 kts 82°
2026-05-05 20:35 44.56547 26.08557 325 ft 141 kts 86°
2026-05-05 20:35 44.56643 26.09870 318 ft 120 kts 84°
2026-05-05 20:35 44.56687 26.10676 315 ft 37 kts 86°
2026-05-05 20:36 44.56769 26.10759 316 ft 12 kts 328°
2026-05-05 20:36 44.56856 26.10743 315 ft 14 kts 355°
2026-05-05 20:36 44.56960 26.10727 316 ft 16 kts 346°
2026-05-05 20:36 44.57043 26.10615 316 ft 18 kts 300°
2026-05-05 20:37 44.57062 26.10444 316 ft 19 kts 268°
2026-05-05 20:37 44.57049 26.10252 316 ft 21 kts 264°
2026-05-05 20:37 44.57034 26.10041 317 ft 23 kts 264°
2026-05-05 20:37 44.57019 26.09812 318 ft 24 kts 265°
2026-05-05 20:38 44.57013 26.09726 318 ft 0 kts 265°
2026-05-05 20:38 44.57013 26.09722 318 ft 1 kts 265°
2026-05-05 20:38 44.57012 26.09703 318 ft 3 kts 264°
2026-05-05 20:38 44.56999 26.09593 319 ft 22 kts 261°
2026-05-05 20:39 44.56980 26.09324 319 ft 32 kts 265°
2026-05-05 20:39 44.56957 26.08972 320 ft 40 kts 263°
2026-05-05 20:39 44.56925 26.08580 321 ft 37 kts 259°
2026-05-05 20:39 44.56944 26.08338 321 ft 18 kts 324°
2026-05-05 20:40 44.56970 26.08254 322 ft 0 kts 270°
2026-05-05 20:41 44.56969 26.08202 322 ft 14 kts 261°
2026-05-05 20:41 44.56981 26.08115 322 ft 10 kts 12°
2026-05-05 20:41 44.57028 26.08128 322 ft 0 kts 351°